Regional Weather Roundup
Issued by NWS

Home | Current Version | Previous Version | Text Only | Print | Product List | Glossary Off
Versions: 1 2 3 4 5 6 7 8 9 10 11 12 13 14 15 16 17 18 19 20 21 22 23 24 25 26 27 28 29 30 31 32 33 34 35 36 37 38 39 40 41 42 43 44 45 46 47 48 49 50

372
ASUS43 KOAX 021510
RWRNE

WEATHER ROUNDUP FOR NEBRASKA
NATIONAL WEATHER SERVICE OMAHA NE
1000 AM CDT MON MAY 02 2016

NOTES: SATELLITE DATA IS BEING USED TO AUGMENT CLOUD COVER ABOVE
       12000 FEET.
       "FAIR" INDICATES FEW OR NO CLOUDS BELOW 12,000 FEET WITH NO
       SIGNIFICANT WEATHER AND/OR OBSTRUCTIONS TO VISIBILITY.

  * THESE STATIONS DO NOT REPORT WEATHER SUCH AS RAIN...SNOW OR FOG.

NEZ001>004-019>022-054>056-021600-
NEBRASKA PANHANDLE

CITY           SKY/WX    TMP DP  RH WIND       PRES   REMARKS
SCOTTSBLUFF    SUNNY     44  30  57 W12       30.21F
ALLIANCE       SUNNY     43  36  76 W8        30.18F
CHADRON        SUNNY     50  35  56 W15       30.17F
KIMBALL        SUNNY     40  31  71 W10       30.23S WCI  33
SIDNEY         SUNNY     40  31  70 W9        30.21F WCI  34
$$

NEZ057>060-069>072-079>082-021600-
SOUTHWEST NEBRASKA

CITY           SKY/WX    TMP DP  RH WIND       PRES   REMARKS
NORTH PLATTE   SUNNY     46  35  65 W6        30.19F
IMPERIAL       SUNNY     45  34  65 NW10      30.21F
LEXINGTON      SUNNY     47  39  73 NW6       30.19F
MCCOOK         SUNNY     47  37  68 SW5       30.20F
OGALLALA       SUNNY     44  35  71 SW6       30.20F
$$

NEZ005>010-023>029-035>040-094-021600-
NORTH CENTRAL NEBRASKA

CITY           SKY/WX    TMP DP  RH WIND       PRES   REMARKS
VALENTINE      SUNNY     50  35  56 NW7       30.15F
AINSWORTH      SUNNY     53  37  55 W8        30.15F
BROKEN BOW     SUNNY     51  36  56 NW9       30.17F
O`NEILL        SUNNY     54  39  56 W8        30.16S
ORD            SUNNY     50  40  68 NW3       30.16F
THEDFORD       SUNNY     51  37  59 W6        30.17F
$$

NEZ041-046>049-061>064-073>077-083>087-021600-
SOUTH CENTRAL NEBRASKA

CITY           SKY/WX    TMP DP  RH WIND       PRES   REMARKS
GRAND ISLAND   SUNNY     53  39  59 NW8       30.18S
AURORA         SUNNY     52  41  66 NW10      30.17F
HASTINGS       SUNNY     52  39  61 NW9       30.17F
HEBRON         SUNNY     54  40  59 NW9       30.16F
HOLDREGE       SUNNY     49  39  67 N8        30.19S
KEARNEY *      SUNNY     48  39  71 NW8       30.19S
YORK           SUNNY     54  41  62 N8        30.17S
$$

NEZ011>018-030>034-042>045-021600-
NORTHEAST NEBRASKA

CITY           SKY/WX    TMP DP  RH WIND       PRES   REMARKS
NORFOLK        SUNNY     51  40  65 NW6       30.15F
ALBION         SUNNY     53  39  59 NW6       30.16F
BLAIR          SUNNY     54  42  63 N7        30.14S
COLUMBUS *     SUNNY     54  39  58 NW6       30.17S
FREMONT        SUNNY     53  42  66 NW6       30.15F
TEKAMAH        SUNNY     54  44  69 N8        30.15S
WAYNE          SUNNY     54  41  63 NW3       30.15F
$$

NEZ050>053-065>068-078-088>093-021600-
SOUTHEAST NEBRASKA

CITY           SKY/WX    TMP DP  RH WIND       PRES   REMARKS
LINCOLN        SUNNY     57  40  52 N8        30.16F
OMAHA EPPLEY   MOSUNNY   53  44  71 N7        30.15S
BEATRICE       MOSUNNY   55  41  60 N12       30.15F
FALLS CITY     CLOUDY    52  45  77 N9        30.12F
NEBRASKA CITY  PTSUNNY   52  43  72 N8        30.14S
PLATTSMOUTH    SUNNY     54  42  63 N8        30.14F
$$

NEZ044-045-051>053-067-021600-
OMAHA AREA

CITY           SKY/WX    TMP DP  RH WIND       PRES   REMARKS
OMAHA EPPLEY   MOSUNNY   53  44  71 N7        30.15S
BLAIR          SUNNY     54  42  63 N7        30.14S
FREMONT        SUNNY     53  42  66 NW6       30.15F
MILLARD        SUNNY     55  41  60 N5        30.15S
OFFUTT AFB     SUNNY     55  44  67 NE7       30.14S
PLATTSMOUTH    SUNNY     54  42  63 N8        30.14F
WAHOO          FAIR      54  43  66 N5        30.15S
$$




USA.gov is the U.S. government's official web portal to all federal, state and local government web resources and services.